Time,TemperatureF,DewpointF,PressureIn,WindDirection,WindDirectionDegrees,WindSpeedMPH,WindSpeedGustMPH,Humidity,HourlyPrecipIn,Conditions,Clouds,dailyrainin,SoftwareType,DateUTC
2013-06-26 00:07:00,64.3,26.0,29.62,ENE,66,2.0,-999.0,23,-99.99,,,0.00,weatherlink.com 1.10,2013-06-26 06:07:00,
2013-06-26 00:22:00,64.8,26.0,29.61,NE,56,0.0,-999.0,23,-99.99,,,0.00,weatherlink.com 1.10,2013-06-26 06:22:00,
2013-06-26 00:37:00,64.3,26.0,29.60,NE,53,0.0,-999.0,23,-99.99,,,0.00,weatherlink.com 1.10,2013-06-26 06:37:00,
2013-06-26 00:52:00,62.0,26.0,29.61,NE,53,3.0,-999.0,25,-99.99,,,0.00,weatherlink.com 1.10,2013-06-26 06:52:00,
2013-06-26 01:07:00,63.4,26.0,29.61,NE,45,5.0,-999.0,24,-99.99,,,0.00,weatherlink.com 1.10,2013-06-26 07:07:00,
2013-06-26 01:22:00,63.5,26.0,29.61,NE,42,2.0,-999.0,24,-99.99,,,0.00,weatherlink.com 1.10,2013-06-26 07:22:00,
2013-06-26 01:37:00,62.9,25.0,29.60,NE,37,2.0,-999.0,24,-99.99,,,0.00,weatherlink.com 1.10,2013-06-26 07:37:00,
2013-06-26 01:52:00,62.0,26.0,29.60,NE,37,0.0,-999.0,25,-99.99,,,0.00,weatherlink.com 1.10,2013-06-26 07:52:00,
2013-06-26 02:07:00,60.4,26.0,29.61,NE,37,3.0,-999.0,27,-99.99,,,0.00,weatherlink.com 1.10,2013-06-26 08:07:00,
2013-06-26 02:22:00,60.1,25.0,29.61,NE,36,2.0,-999.0,26,-99.99,,,0.00,weatherlink.com 1.10,2013-06-26 08:22:00,
2013-06-26 02:37:00,59.8,25.0,29.61,NE,37,3.0,-999.0,26,-99.99,,,0.00,weatherlink.com 1.10,2013-06-26 08:37:00,
2013-06-26 02:52:00,58.6,25.0,29.61,NE,37,0.0,-999.0,28,-99.99,,,0.00,weatherlink.com 1.10,2013-06-26 08:52:00,
2013-06-26 03:07:00,58.0,24.0,29.63,NE,37,2.0,-999.0,27,-99.99,,,0.00,weatherlink.com 1.10,2013-06-26 09:07:00,
2013-06-26 03:22:00,59.0,25.0,29.62,NE,51,3.0,-999.0,27,-99.99,,,0.00,weatherlink.com 1.10,2013-06-26 09:22:00,
2013-06-26 03:37:00,58.3,24.0,29.62,NE,50,3.0,-999.0,27,-99.99,,,0.00,weatherlink.com 1.10,2013-06-26 09:37:00,
2013-06-26 03:52:00,56.9,24.0,29.63,NE,48,1.0,-999.0,28,-99.99,,,0.00,weatherlink.com 1.10,2013-06-26 09:52:00,
2013-06-26 04:07:00,56.0,26.0,29.64,NE,48,2.0,-999.0,31,-99.99,,,0.00,weatherlink.com 1.10,2013-06-26 10:07:00,
2013-06-26 04:22:00,55.4,25.0,29.64,NE,48,0.0,-999.0,31,-99.99,,,0.00,weatherlink.com 1.10,2013-06-26 10:22:00,
2013-06-26 04:37:00,53.6,25.0,29.66,NE,48,0.0,-999.0,33,-99.99,,,0.00,weatherlink.com 1.10,2013-06-26 10:37:00,
2013-06-26 04:52:00,52.2,26.0,29.68,NE,48,2.0,-999.0,37,-99.99,,,0.00,weatherlink.com 1.10,2013-06-26 10:52:00,
2013-06-26 05:08:00,51.1,27.0,29.69,NE,48,1.0,-999.0,40,-99.99,,,0.00,weatherlink.com 1.10,2013-06-26 11:08:00,
2013-06-26 05:23:00,50.2,26.0,29.70,NE,48,4.0,-999.0,39,-99.99,,,0.00,weatherlink.com 1.10,2013-06-26 11:23:00,
2013-06-26 05:38:00,50.1,26.0,29.71,North,6,5.0,-999.0,40,-99.99,,,0.00,weatherlink.com 1.10,2013-06-26 11:38:00,
2013-06-26 05:54:00,51.6,27.0,29.71,North,6,4.0,-999.0,38,-99.99,,,0.00,weatherlink.com 1.10,2013-06-26 11:54:00,
2013-06-26 06:09:00,53.6,26.0,29.70,North,359,6.0,-999.0,35,-99.99,,,0.00,weatherlink.com 1.10,2013-06-26 12:09:00,
2013-06-26 06:23:00,53.2,27.0,29.70,NNE,15,2.0,-999.0,37,-99.99,,,0.00,weatherlink.com 1.10,2013-06-26 12:23:00,
2013-06-26 06:39:00,54.8,27.0,29.70,North,7,3.0,-999.0,34,-99.99,,,0.00,weatherlink.com 1.10,2013-06-26 12:39:00,
2013-06-26 06:54:00,55.6,26.0,29.71,NNE,27,3.0,-999.0,32,-99.99,,,0.00,weatherlink.com 1.10,2013-06-26 12:54:00,
2013-06-26 07:08:00,58.1,27.0,29.70,North,1,0.0,-999.0,31,-99.99,,,0.00,weatherlink.com 1.10,2013-06-26 13:08:00,
2013-06-26 07:23:00,58.4,29.0,29.70,ENE,67,1.0,-999.0,33,-99.99,,,0.00,weatherlink.com 1.10,2013-06-26 13:23:00,
2013-06-26 07:39:00,61.3,30.0,29.71,ENE,67,0.0,-999.0,31,-99.99,,,0.00,weatherlink.com 1.10,2013-06-26 13:39:00,
2013-06-26 07:54:00,64.0,35.0,29.71,ENE,70,2.0,-999.0,34,-99.99,,,0.00,weatherlink.com 1.10,2013-06-26 13:54:00,
2013-06-26 08:10:00,66.6,33.0,29.69,ENE,69,0.0,-999.0,29,-99.99,,,0.00,weatherlink.com 1.10,2013-06-26 14:10:00,
2013-06-26 08:25:00,69.1,33.0,29.68,ENE,70,0.0,-999.0,26,-99.99,,,0.00,weatherlink.com 1.10,2013-06-26 14:25:00,
2013-06-26 08:40:00,72.1,33.0,29.73,ENE,70,2.0,-999.0,24,-99.99,,,0.00,weatherlink.com 1.10,2013-06-26 14:40:00,
2013-06-26 08:54:00,73.7,30.0,29.71,ENE,70,0.0,-999.0,20,-99.99,,,0.00,weatherlink.com 1.10,2013-06-26 14:54:00,
2013-06-26 09:09:00,74.2,31.0,29.71,South,185,1.0,-999.0,20,-99.99,,,0.00,weatherlink.com 1.10,2013-06-26 15:09:00,
2013-06-26 09:24:00,76.0,31.0,29.71,South,186,0.0,-999.0,19,-99.99,,,0.00,weatherlink.com 1.10,2013-06-26 15:24:00,
2013-06-26 09:40:00,77.6,31.0,29.71,South,186,1.0,-999.0,18,-99.99,,,0.00,weatherlink.com 1.10,2013-06-26 15:40:00,
2013-06-26 09:55:00,80.5,33.0,29.71,South,187,3.0,-999.0,18,-99.99,,,0.00,weatherlink.com 1.10,2013-06-26 15:55:00,
2013-06-26 10:10:00,81.6,31.0,29.69,SSW,192,6.0,-999.0,16,-99.99,,,0.00,weatherlink.com 1.10,2013-06-26 16:10:00,
2013-06-26 10:25:00,82.0,30.0,29.69,SW,217,0.0,-999.0,15,-99.99,,,0.00,weatherlink.com 1.10,2013-06-26 16:25:00,
2013-06-26 10:41:00,82.4,30.0,29.71,SW,219,2.0,-999.0,15,-99.99,,,0.00,weatherlink.com 1.10,2013-06-26 16:41:00,
2013-06-26 10:56:00,83.8,30.0,29.70,SW,233,2.0,-999.0,14,-99.99,,,0.00,weatherlink.com 1.10,2013-06-26 16:56:00,
2013-06-26 11:12:00,84.9,31.0,29.70,SSW,203,5.0,-999.0,14,-99.99,,,0.00,weatherlink.com 1.10,2013-06-26 17:12:00,
2013-06-26 11:26:00,85.3,31.0,29.69,WSW,241,4.0,-999.0,14,-99.99,,,0.00,weatherlink.com 1.10,2013-06-26 17:26:00,
2013-06-26 11:41:00,87.2,31.0,29.69,SW,228,2.0,-999.0,13,-99.99,,,0.00,weatherlink.com 1.10,2013-06-26 17:41:00,
2013-06-26 11:55:00,87.6,29.0,29.69,SW,236,3.0,-999.0,12,-99.99,,,0.00,weatherlink.com 1.10,2013-06-26 17:55:00,
2013-06-26 12:11:00,88.4,30.0,29.68,SW,233,6.0,-999.0,12,-99.99,,,0.00,weatherlink.com 1.10,2013-06-26 18:11:00,
2013-06-26 12:27:00,88.8,30.0,29.68,WSW,258,1.0,-999.0,12,-99.99,,,0.00,weatherlink.com 1.10,2013-06-26 18:27:00,
2013-06-26 12:41:00,89.5,31.0,29.68,SW,228,4.0,-999.0,12,-99.99,,,0.00,weatherlink.com 1.10,2013-06-26 18:41:00,
2013-06-26 12:56:00,89.5,36.0,29.66,SW,221,6.0,-999.0,15,-99.99,,,0.00,weatherlink.com 1.10,2013-06-26 18:56:00,
2013-06-26 13:11:00,91.2,30.0,29.66,SW,225,7.0,-999.0,11,-99.99,,,0.00,weatherlink.com 1.10,2013-06-26 19:11:00,
2013-06-26 13:27:00,91.4,30.0,29.64,SSW,212,1.0,-999.0,11,-99.99,,,0.00,weatherlink.com 1.10,2013-06-26 19:27:00,
2013-06-26 13:42:00,91.0,30.0,29.67,WSW,255,11.0,-999.0,11,-99.99,,,0.00,weatherlink.com 1.10,2013-06-26 19:42:00,
2013-06-26 13:57:00,92.1,30.0,29.66,WSW,240,13.0,-999.0,11,-99.99,,,0.00,weatherlink.com 1.10,2013-06-26 19:57:00,
2013-06-26 14:12:00,92.3,31.0,29.65,SW,221,5.0,-999.0,11,-99.99,,,0.00,weatherlink.com 1.10,2013-06-26 20:12:00,
2013-06-26 14:28:00,92.5,28.0,29.65,SW,233,6.0,-999.0,10,-99.99,,,0.00,weatherlink.com 1.10,2013-06-26 20:28:00,
2013-06-26 14:41:00,93.4,29.0,29.64,West,261,5.0,-999.0,10,-99.99,,,0.00,weatherlink.com 1.10,2013-06-26 20:41:00,
2013-06-26 14:57:00,93.4,29.0,29.64,West,262,6.0,-999.0,10,-99.99,,,0.00,weatherlink.com 1.10,2013-06-26 20:57:00,
2013-06-26 15:12:00,94.3,30.0,29.64,West,268,8.0,-999.0,10,-99.99,,,0.00,weatherlink.com 1.10,2013-06-26 21:12:00,
2013-06-26 15:28:00,94.5,30.0,29.64,SSW,194,4.0,-999.0,10,-99.99,,,0.00,weatherlink.com 1.10,2013-06-26 21:28:00,
2013-06-26 15:43:00,93.8,29.0,29.64,WSW,252,12.0,-999.0,10,-99.99,,,0.00,weatherlink.com 1.10,2013-06-26 21:43:00,
2013-06-26 15:57:00,94.3,30.0,29.64,WSW,252,10.0,-999.0,10,-99.99,,,0.00,weatherlink.com 1.10,2013-06-26 21:57:00,
2013-06-26 16:12:00,94.3,30.0,29.63,SW,235,13.0,-999.0,10,-99.99,,,0.00,weatherlink.com 1.10,2013-06-26 22:12:00,
2013-06-26 16:28:00,94.3,30.0,29.63,West,260,11.0,-999.0,10,-99.99,,,0.00,weatherlink.com 1.10,2013-06-26 22:28:00,
2013-06-26 16:43:00,94.5,30.0,29.66,South,181,13.0,-999.0,10,-99.99,,,0.00,weatherlink.com 1.10,2013-06-26 22:43:00,
2013-06-26 16:59:00,94.5,30.0,29.64,West,265,11.0,-999.0,10,-99.99,,,0.00,weatherlink.com 1.10,2013-06-26 22:59:00,
2013-06-26 17:12:00,94.3,30.0,29.64,SW,230,4.0,-999.0,10,-99.99,,,0.00,weatherlink.com 1.10,2013-06-26 23:12:00,
2013-06-26 17:28:00,94.3,30.0,29.65,SW,236,7.0,-999.0,10,-99.99,,,0.00,weatherlink.com 1.10,2013-06-26 23:28:00,
2013-06-26 17:43:00,94.0,30.0,29.62,WSW,246,10.0,-999.0,10,-99.99,,,0.00,weatherlink.com 1.10,2013-06-26 23:43:00,
2013-06-26 17:59:00,93.8,29.0,29.63,West,272,9.0,-999.0,10,-99.99,,,0.00,weatherlink.com 1.10,2013-06-26 23:59:00,
2013-06-26 18:14:00,93.6,29.0,29.63,West,260,10.0,-999.0,10,-99.99,,,0.00,weatherlink.com 1.10,2013-06-27 00:14:00,
2013-06-26 18:28:00,92.9,29.0,29.62,WSW,257,17.0,-999.0,10,-99.99,,,0.00,weatherlink.com 1.10,2013-06-27 00:28:00,
2013-06-26 18:43:00,92.9,29.0,29.61,WNW,288,7.0,-999.0,10,-99.99,,,0.00,weatherlink.com 1.10,2013-06-27 00:43:00,
2013-06-26 18:59:00,92.3,28.0,29.60,West,264,11.0,-999.0,10,-99.99,,,0.00,weatherlink.com 1.10,2013-06-27 00:59:00,
2013-06-26 19:14:00,91.6,28.0,29.60,WSW,249,11.0,-999.0,10,-99.99,,,0.00,weatherlink.com 1.10,2013-06-27 01:14:00,
2013-06-26 19:29:00,91.2,30.0,29.61,WSW,240,12.0,-999.0,11,-99.99,,,0.00,weatherlink.com 1.10,2013-06-27 01:29:00,
2013-06-26 19:44:00,90.7,29.0,29.57,WSW,255,10.0,-999.0,11,-99.99,,,0.00,weatherlink.com 1.10,2013-06-27 01:44:00,
2013-06-26 19:59:00,90.1,29.0,29.57,West,262,9.0,-999.0,11,-99.99,,,0.00,weatherlink.com 1.10,2013-06-27 01:59:00,
2013-06-26 20:14:00,89.3,30.0,29.57,West,278,4.0,-999.0,12,-99.99,,,0.00,weatherlink.com 1.10,2013-06-27 02:14:00,
2013-06-26 20:29:00,87.6,29.0,29.58,WNW,282,0.0,-999.0,12,-99.99,,,0.00,weatherlink.com 1.10,2013-06-27 02:29:00,
2013-06-26 20:44:00,85.5,29.0,29.55,WNW,286,0.0,-999.0,13,-99.99,,,0.00,weatherlink.com 1.10,2013-06-27 02:44:00,
2013-06-26 20:59:00,84.5,28.0,29.57,WNW,293,1.0,-999.0,13,-99.99,,,0.00,weatherlink.com 1.10,2013-06-27 02:59:00,
2013-06-26 21:14:00,83.6,28.0,29.59,WNW,293,1.0,-999.0,13,-99.99,,,0.00,weatherlink.com 1.10,2013-06-27 03:14:00,
2013-06-26 21:29:00,82.2,28.0,29.59,WNW,293,0.0,-999.0,14,-99.99,,,0.00,weatherlink.com 1.10,2013-06-27 03:29:00,
2013-06-26 21:44:00,79.2,29.0,29.56,WNW,293,0.0,-999.0,16,-99.99,,,0.00,weatherlink.com 1.10,2013-06-27 03:44:00,
2013-06-26 21:59:00,77.6,28.0,29.59,WNW,293,0.0,-999.0,16,-99.99,,,0.00,weatherlink.com 1.10,2013-06-27 03:59:00,
2013-06-26 22:14:00,73.0,28.0,29.60,WNW,293,0.0,-999.0,19,-99.99,,,0.00,weatherlink.com 1.10,2013-06-27 04:14:00,
2013-06-26 22:29:00,71.6,30.0,29.62,WNW,293,0.0,-999.0,21,-99.99,,,0.00,weatherlink.com 1.10,2013-06-27 04:29:00,
2013-06-26 22:44:00,69.8,28.0,29.61,WNW,293,0.0,-999.0,21,-99.99,,,0.00,weatherlink.com 1.10,2013-06-27 04:44:00,
2013-06-26 22:59:00,68.4,28.0,29.62,WNW,295,0.0,-999.0,22,-99.99,,,0.00,weatherlink.com 1.10,2013-06-27 04:59:00,
2013-06-26 23:14:00,67.3,27.0,29.64,WNW,295,2.0,-999.0,22,-99.99,,,0.00,weatherlink.com 1.10,2013-06-27 05:14:00,
2013-06-26 23:29:00,66.0,28.0,29.65,WNW,295,0.0,-999.0,24,-99.99,,,0.00,weatherlink.com 1.10,2013-06-27 05:29:00,
2013-06-26 23:44:00,65.3,27.0,29.64,WNW,295,0.0,-999.0,24,-99.99,,,0.00,weatherlink.com 1.10,2013-06-27 05:44:00,
2013-06-26 23:59:00,65.0,27.0,29.65,WNW,300,0.0,-999.0,24,-99.99,,,0.00,weatherlink.com 1.10,2013-06-27 05:59:00,